TimeMDT,TemperatureF,Dew PointF,Humidity,Sea Level PressureIn,VisibilityMPH,Wind Direction,Wind SpeedMPH,Gust SpeedMPH,PrecipitationIn,Events,Conditions,WindDirDegrees,DateUTC
12:53 AM,35.1,30.0,82,29.96,10.0,NNW,5.8,-,N/A,,Scattered Clouds,340,2012-10-25 06:53:00
1:21 AM,35.6,30.2,81,30.10,10.0,Calm,Calm,-,N/A,,Mostly Cloudy,0,2012-10-25 07:21:00
1:53 AM,36.0,30.0,79,30.00,10.0,Calm,Calm,-,N/A,,Overcast,0,2012-10-25 07:53:00
2:04 AM,35.6,28.4,75,30.12,10.0,Calm,Calm,-,N/A,,Overcast,0,2012-10-25 08:04:00
2:53 AM,35.1,28.0,76,30.01,10.0,Calm,Calm,-,N/A,,Overcast,0,2012-10-25 08:53:00
3:07 AM,35.6,28.4,75,30.13,10.0,ESE,3.5,-,N/A,,Overcast,120,2012-10-25 09:07:00
3:53 AM,36.0,28.0,73,30.01,10.0,Calm,Calm,-,N/A,,Overcast,0,2012-10-25 09:53:00
4:53 AM,36.0,28.9,76,30.06,10.0,Calm,Calm,-,0.00,,Overcast,0,2012-10-25 10:53:00
5:53 AM,35.1,28.0,76,30.12,10.0,ESE,3.5,-,N/A,,Mostly Cloudy,120,2012-10-25 11:53:00
6:53 AM,33.1,28.0,82,30.13,10.0,South,4.6,-,N/A,,Clear,180,2012-10-25 12:53:00
7:53 AM,30.9,27.0,85,30.14,10.0,Calm,Calm,-,N/A,,Clear,0,2012-10-25 13:53:00
8:53 AM,36.0,27.0,70,30.13,10.0,SE,6.9,-,N/A,,Clear,140,2012-10-25 14:53:00
9:53 AM,37.0,27.0,67,30.14,10.0,North,8.1,-,N/A,,Clear,360,2012-10-25 15:53:00
10:53 AM,39.9,27.0,60,30.14,10.0,NNW,8.1,-,N/A,,Clear,340,2012-10-25 16:53:00
12:53 PM,45.0,19.9,37,30.09,10.0,Variable,6.9,-,N/A,,Mostly Cloudy,0,2012-10-25 18:53:00
1:53 PM,45.0,19.9,37,30.08,10.0,NNW,15.0,26.5,N/A,,Overcast,340,2012-10-25 19:53:00
2:53 PM,48.0,17.1,29,30.03,10.0,Variable,6.9,-,N/A,,Clear,0,2012-10-25 20:53:00
3:17 PM,51.8,10.4,19,30.09,10.0,WSW,20.7,26.5,N/A,,Clear,250,2012-10-25 21:17:00
3:53 PM,50.0,10.0,20,30.03,10.0,West,12.7,18.4,N/A,,Mostly Cloudy,280,2012-10-25 21:53:00
4:53 PM,48.0,12.0,24,30.05,10.0,NW,13.8,-,N/A,,Scattered Clouds,310,2012-10-25 22:53:00
5:53 PM,46.0,10.0,23,30.08,10.0,WNW,16.1,21.9,N/A,,Clear,290,2012-10-25 23:53:00
6:53 PM,44.1,9.0,24,30.12,10.0,WNW,15.0,23.0,N/A,,Mostly Cloudy,290,2012-10-26 00:53:00
7:53 PM,39.9,21.0,47,30.19,10.0,NW,18.4,26.5,N/A,,Overcast,320,2012-10-26 01:53:00
8:53 PM,37.9,21.0,51,30.22,10.0,WNW,13.8,-,N/A,,Mostly Cloudy,300,2012-10-26 02:53:00
9:53 PM,37.0,21.9,54,30.25,10.0,West,9.2,-,N/A,,Overcast,280,2012-10-26 03:53:00
10:53 PM,36.0,23.0,59,30.26,10.0,NW,6.9,-,N/A,,Overcast,310,2012-10-26 04:53:00
11:53 PM,34.0,21.9,61,30.27,10.0,Calm,Calm,-,N/A,,Clear,0,2012-10-26 05:53:00